Meteo Giornale » Osservazioni meteo Colombia » Neiva-Benito Salas
ore: 13:00 - Osservazioni Meteo Neiva-Benito Salas
Lat. 2° 58' N Lon. 75° 18' W Alt. 439 metri s.l.m.
35 °C
Molto Nuvoloso
Temp. 24 Ore
24 °C
36 °C
Nord
7.4 Km/h
Dew point 17 °C
Umidità 34 %
Visibilità 10 Km
Il sole sorge alle ore 05:56
Il sole tramonta alle ore 18:06
| Data e Ora | Cielo e Fenomeni | T °C | DP °C | Um. % | Pres. hPa | Vis. km | Vento km/h | |
|---|---|---|---|---|---|---|---|---|
| Oggi h: 13:00 | Molto Nuvoloso | 35 | 17 | 34 | 1012 | 10 | N 7.4 | |
| Oggi h: 12:00 | Nuvoloso | 35 | 16 | 32 | 1013 | 10 | N 5.5 | |
| Oggi h: 11:00 | Sereno | 34 | 17 | 36 | 1014 | 10 | N 3.7 | |
| Oggi h: 10:00 | Sereno | 32 | 17 | 40 | 1015 | 10 | N 5.5 | |
| Oggi h: 09:23 | Sereno | 31 | 18 | 45 | 1015 | 10 | N 5.5 | |
| Oggi h: 09:00 | Sereno | 29 | 18 | 51 | 1015 | 10 | S/SO 7.4 | |
| Oggi h: 08:06 | Sereno | 28 | 18 | 54 | 1015 | 10 | S/SO 9.3 | |
| Oggi h: 08:00 | Sereno | 26 | 18 | 61 | 1015 | 10 | S/SO 11.1 | |
| Oggi h: 07:00 | Sereno | 24 | 18 | 69 | 1014 | 10 | N 5.5 | |
| Oggi h: 06:00 | Sereno | 25 | 18 | 65 | 1013 | 10 | N 3.7 | |
| Oggi h: 05:00 | Sereno | 26 | 18 | 61 | 1013 | 10 | N 5.5 | |
| Oggi h: 04:00 | Sereno | 26 | 17 | 57 | 1012 | 10 | N 5.5 | |
| Oggi h: 03:00 | Sereno | 26 | 18 | 61 | 1012 | 10 | N 3.7 | |
| Oggi h: 02:00 | Sereno | 27 | 17 | 54 | 1012 | 10 | N 5.5 | |
| Oggi h: 01:00 | Sereno | 28 | 17 | 51 | 1013 | 10 | SE 7.4 | |
| Oggi h: 00:00 | Sereno | 29 | 17 | 48 | 1013 | 10 | S 7.4 | |
| Ieri h: 23:00 | Sereno | 29 | 17 | 48 | 1013 | 10 | S 11.1 | |
| Ieri h: 22:00 | Sereno | 30 | 17 | 45 | 1013 | 10 | SE 11.1 | |
| Ieri h: 21:00 | Sereno | 31 | 16 | 40 | 1012 | 10 | S 11.1 | |
| Ieri h: 20:00 | Sereno | 31 | 16 | 40 | 1011 | 10 | S/SO 11.1 | |
| Ieri h: 19:00 | Sereno | 33 | 14 | 31 | 1010 | 10 | S 7.4 | |
| Ieri h: 18:00 | Sereno | 34 | 15 | 32 | 1009 | 10 | E/SE 11.1 | |
| Ieri h: 17:00 | Molto Nuvoloso | 36 | 15 | 28 | 1009 | 10 | S/SE 14.8 | |
| Ieri h: 16:00 | Pioggia nelle vicinanze | 35 | 15 | 30 | 1009 | 10 | S 13 | |
| Ieri h: 15:00 | Pioggia nelle vicinanze | 35 | 15 | 30 | 1010 | 10 | S 18.5 | |
| Ieri h: 14:00 | Pioggia nelle vicinanze | 36 | 15 | 28 | 1010 | 10 | S 11.1 | |



